Weather History for Truckee-Tahoe, CA

Change the Weather History Date:

Sunday, November 20, 2011

  Actual Average Record
Temperature  
Mean Temperature 28 °F -  
Max Temperature 33 °F 44 °F 64 °F (1989)
Min Temperature 23 °F 20 °F 0 °F (1964)
Degree Days  
Heating Degree Days 37    
Moisture  
Dew Point 26 °F    
Average Humidity 92    
Maximum Humidity 100    
Minimum Humidity 75    
Precipitation  
Precipitation 0.02 in - - ()
Snow  
Snow 0.00 in - - ()
Snow Depth 3.00 in    
Sea Level Pressure  
Sea Level Pressure 29.84 in    
Wind  
Wind Speed 3 mph (South)    
Max Wind Speed 10 mph    
Max Gust Speed 22 mph    
Visibility 5 miles    
Events Fog , Snow    
Averages and records for this station are not official NWS values.
T = Trace of Precipitation, MM = Missing Value Source: NWS Daily Summary

Daily Weather History Graph

Daily Weather History Graph

Search for Another Location

Airport:

Trip Planner

Search our weather history database for the weather conditions in past years. The results will help you decide how hot, cold, wet, or windy it might be!

Date:

Astronomy

Nov. 20, 2011 Rise Set
Actual Time 6:49 AM PST 4:42 PM PST
Civil Twilight 6:20 AM PST 5:11 PM PST
Nautical Twilight 5:47 AM PST 5:44 PM PST
Astronomical Twilight 5:15 AM PST 6:16 PM PST
Moon 1:25 AM PST (11/20) 1:32 PM PST (11/20)
Length of Visible Light 10h 50m
Length of Day
9h 52m
Waning Crescent, 26% of the Moon is Illuminated
Nov 20
Waning Crescent
Nov 24
New
Dec 2
First Quarter
Dec 10
Full
Dec 17
Last Quarter

Hourly Weather History & Observations

Time (PST) Temp. Windchill Dew Point Humidity Pressure Visibility Wind Dir Wind Speed Gust Speed Precip Events Conditions
12:15 AM 28.4 °F - 26.6 °F 93% 29.73 in 5.0 mi Calm Calm - N/A Snow Light Snow
12:35 AM 28.4 °F 24.6 °F 24.8 °F 86% 29.72 in 10.0 mi SSE 3.5 mph - N/A   Partly Cloudy
12:55 AM 30.2 °F 24.3 °F 24.8 °F 80% 29.71 in 10.0 mi WSW 5.8 mph - N/A   Mostly Cloudy
1:15 AM 32.0 °F 24.8 °F 24.8 °F 75% 29.71 in 4.0 mi SSW 8.1 mph - N/A Snow Light Snow
1:35 AM 30.2 °F 21.9 °F 26.6 °F 86% 29.71 in 2.5 mi South 9.2 mph - N/A Snow Light Snow
1:55 AM 30.2 °F - 26.6 °F 86% 29.71 in 6.0 mi Calm Calm - N/A Snow Light Snow
2:15 AM 30.2 °F 23.4 °F 26.6 °F 86% 29.71 in 2.0 mi South 6.9 mph - N/A Snow Light Snow
2:35 AM 30.2 °F 23.4 °F 26.6 °F 86% 29.70 in 2.0 mi South 6.9 mph - N/A Snow Light Snow
2:55 AM 30.2 °F 21.3 °F 26.6 °F 86% 29.70 in 2.5 mi South 10.4 mph - 0.01 in Snow Light Snow
3:15 AM 30.2 °F 22.6 °F 26.6 °F 86% 29.69 in 1.8 mi South 8.1 mph - N/A Snow Light Snow
3:35 AM 32.0 °F 24.2 °F 26.6 °F 80% 29.69 in 2.0 mi SSW 9.2 mph 21.9 mph N/A Snow Light Snow
3:55 AM 30.2 °F 24.3 °F 26.6 °F 86% 29.69 in 2.0 mi South 5.8 mph - N/A Snow Light Snow
4:15 AM 32.0 °F 26.4 °F 26.6 °F 80% 29.69 in 2.5 mi SSW 5.8 mph - 0.01 in Snow Light Snow
4:35 AM 32.0 °F - 26.6 °F 80% 29.69 in 4.0 mi Calm Calm - N/A Snow Light Snow
4:55 AM 28.4 °F 23.3 °F 26.6 °F 93% 29.68 in 3.0 mi NNE 4.6 mph - 0.01 in Snow Light Snow
5:15 AM 28.4 °F 22.2 °F 26.6 °F 93% 29.69 in 4.0 mi North 5.8 mph - N/A Snow Light Snow
5:35 AM 28.4 °F 21.2 °F 26.6 °F 93% 29.69 in 6.0 mi North 6.9 mph - N/A Snow Light Snow
6:55 AM 26.6 °F 18.2 °F 26.6 °F 100% 29.73 in 0.2 mi North 8.1 mph - N/A Snow Heavy Snow
7:55 AM 26.6 °F 22.6 °F 26.6 °F 100% 29.76 in 0.2 mi NNW 3.5 mph - N/A Snow Snow
8:45 AM 26.6 °F 21.2 °F 26.6 °F 100% 29.79 in 0.2 mi North 4.6 mph - N/A Snow Heavy Snow
10:55 AM 28.4 °F 24.6 °F 26.6 °F 93% 29.83 in 4.0 mi NNE 3.5 mph - N/A Snow Light Snow
11:45 AM 30.2 °F - 26.6 °F 86% 29.83 in 6.0 mi Calm Calm - N/A Snow Light Snow
12:45 PM 32.0 °F - 26.6 °F 80% 29.84 in 7.0 mi Calm Calm - N/A   Mostly Cloudy
1:45 PM 32.0 °F - 26.6 °F 80% 29.85 in 8.0 mi Calm Calm - N/A   Mostly Cloudy
2:45 PM 33.8 °F - 26.6 °F 75% 29.86 in 10.0 mi Calm Calm - N/A   Mostly Cloudy
3:55 PM 30.2 °F 26.7 °F 28.4 °F 93% 29.87 in 10.0 mi WSW 3.5 mph - N/A   Scattered Clouds
4:50 PM 26.6 °F 22.6 °F 26.6 °F 100% 29.88 in 3.0 mi SE 3.5 mph - N/A Fog Patches of Fog
4:55 PM 26.6 °F - 26.6 °F 100% 29.88 in 1.2 mi Calm Calm - N/A   Clear
5:15 PM 24.8 °F - 24.8 °F 100% 29.89 in 0.5 mi Calm Calm - N/A   Unknown
5:35 PM 24.8 °F - 24.8 °F 100% 29.90 in 0.2 mi Calm Calm - N/A   Unknown
5:55 PM 23.0 °F - 23.0 °F 100% 29.91 in 0.2 mi Calm Calm - N/A Fog Light Freezing Fog
6:15 PM 23.0 °F - 23.0 °F 100% 29.91 in 0.2 mi Calm Calm - N/A Fog Light Freezing Fog
6:35 PM 23.0 °F - 23.0 °F 100% 29.92 in 1.0 mi Calm Calm - N/A   Overcast
6:55 PM 24.8 °F - 23.0 °F 93% 29.92 in 1.0 mi Calm Calm - N/A   Overcast
7:15 PM 23.0 °F - 23.0 °F 100% 29.93 in 10.0 mi Calm Calm - N/A   Overcast
7:35 PM 24.8 °F - 23.0 °F 93% 29.94 in 10.0 mi Calm Calm - N/A   Overcast
7:55 PM 24.8 °F - 24.8 °F 100% 29.94 in 3.0 mi Calm Calm - N/A   Overcast
8:15 PM 24.8 °F - 24.8 °F 100% 29.94 in 10.0 mi Calm Calm - N/A   Overcast
8:35 PM 24.8 °F - 24.8 °F 100% 29.95 in 10.0 mi Calm Calm - N/A   Overcast
8:55 PM 24.8 °F - 24.8 °F 100% 29.95 in 10.0 mi Calm Calm - N/A   Overcast
9:15 PM 26.6 °F - 24.8 °F 93% 29.96 in 10.0 mi Calm Calm - N/A   Overcast
9:35 PM 26.6 °F - 24.8 °F 93% 29.97 in 10.0 mi Calm Calm - N/A   Overcast
9:55 PM 26.6 °F - 24.8 °F 93% 29.98 in 10.0 mi Calm Calm - N/A   Overcast
10:15 PM 26.6 °F - 24.8 °F 93% 29.99 in 10.0 mi Calm Calm - N/A   Overcast
10:35 PM 26.6 °F - 24.8 °F 93% 29.98 in 10.0 mi Calm Calm - N/A   Overcast
10:55 PM 26.6 °F - 24.8 °F 93% 29.98 in 10.0 mi Calm Calm - N/A   Overcast
11:15 PM 26.6 °F - 24.8 °F 93% 29.98 in 10.0 mi Calm Calm - N/A   Overcast
11:35 PM 26.6 °F - 26.6 °F 100% 29.99 in 10.0 mi Calm Calm - N/A   Overcast
11:55 PM 26.6 °F 22.6 °F 24.8 °F 93% 29.99 in 10.0 mi SE 3.5 mph - N/A   Overcast